START_TIME,STEP,MOV.,H8,t_acc.,H43,t_acc.,M25,t_acc.,H9,t_acc.
1979-07-20 12:00:29.280 ,0,0,0.,12.0,0.,12.0,0.,12.0,0.,12.0
1979-07-20 12:00:41.280 ,0,0,0.,12.0,0.,12.0,0.,12.0,0.,12.0
1979-07-20 12:00:53.280 ,1,0,0.,12.0,0.,12.0,0.,12.0,0.,12.0
1979-07-20 12:01:05.280 ,1,0,0.,12.0,0.,12.0,0.,12.0,0.,12.0
1979-07-20 12:01:17.280 ,1,0,0.,12.0,0.,12.0,0.,12.0,0.,12.0
1979-07-20 12:01:29.280 ,1,0,0.,12.0,0.,12.0,0.,12.0,0.,12.0
1979-07-20 12:01:41.280 ,2,0,0.,12.0,0.,12.0,0.,12.0,0.,12.0
1979-07-20 12:01:53.280 ,2,0,0.,12.0,0.,12.0,0.,12.0,0.,12.0
1979-07-20 12:02:05.280 ,2,0,0.,12.0,0.,12.0,0.,12.0,0.,12.0
1979-07-20 12:02:17.280 ,2,0,0.,12.0,0.,12.0,0.,12.0,0.,12.0
1979-07-20 12:02:29.270 ,3,0,0.,12.0,0.,12.0,0.,12.0,0.,12.0
1979-07-20 12:02:41.280 ,3,0,0.,12.0,0.,12.0,0.,12.0,0.,12.0
1979-07-20 12:02:53.270 ,3,0,0.,12.0,0.,12.0,0.,12.0,0.,12.0
1979-07-20 12:03:05.270 ,3,0,0.,12.0,0.,12.0,0.,12.0,0.,12.0
1979-07-20 12:03:17.270 ,4,0,0.,12.0,0.,12.0,0.,12.0,0.,12.0
1979-07-20 12:03:29.280 ,4,0,0.,12.0,0.,12.0,0.,12.0,0.,12.0
1979-07-20 12:03:41.270 ,4,0,0.,12.0,0.,12.0,0.,12.0,0.,12.0
1979-07-20 12:03:53.280 ,4,0,0.,12.0,0.,12.0,0.,12.0,0.,12.0
1979-07-20 12:04:05.270 ,5,0,0.,12.0,0.,12.0,0.,12.0,0.,12.0
1979-07-20 12:04:17.270 ,5,0,0.,12.0,0.,12.0,0.,12.0,0.,12.0
1979-07-20 12:04:29.270 ,5,0,0.,12.0,0.,12.0,0.,12.0,0.,12.0
1979-07-20 12:04:41.270 ,5,0,0.,12.0,0.,12.0,0.,12.0,0.,12.0
1979-07-20 12:04:53.270 ,6,0,0.,12.0,0.,12.0,0.,12.0,0.,12.0
1979-07-20 12:05:05.270 ,6,0,0.,12.0,0.,12.0,0.,12.0,0.,12.0
1979-07-20 12:05:17.270 ,6,0,0.,12.0,0.,12.0,0.,12.0,0.,12.0
1979-07-20 12:05:29.270 ,6,0,0.,12.0,0.,12.0,0.,12.0,0.,12.0
1979-07-20 12:05:41.270 ,7,0,0.,12.0,0.,12.0,0.,12.0,0.,12.0
1979-07-20 12:05:53.270 ,7,0,0.,12.0,0.,12.0,0.,12.0,0.,12.0
1979-07-20 12:06:05.270 ,7,0,0.,12.0,0.,12.0,0.,12.0,0.,12.0
1979-07-20 12:06:17.270 ,7,0,0.,12.0,0.,12.0,0.,12.0,0.,12.0
1979-07-20 12:06:29.270 ,7,0,0.,12.0,0.,12.0,0.,12.0,0.,12.0
1979-07-20 12:06:41.270 ,7,0,0.,12.0,0.,12.0,0.,12.0,0.,12.0
1979-07-20 12:06:53.270 ,7,0,0.,12.0,0.,12.0,0.,12.0,0.,12.0
1979-07-20 12:07:05.270 ,7,0,0.,12.0,0.,12.0,0.,12.0,0.,12.0
1979-07-20 12:07:17.270 ,6,0,0.,12.0,0.,12.0,0.,12.0,0.,12.0
1979-07-20 12:07:29.270 ,6,0,0.,12.0,0.,12.0,0.,12.0,0.,12.0
1979-07-20 12:07:41.270 ,6,0,0.,12.0,0.,12.0,0.,12.0,0.,12.0
1979-07-20 12:07:53.270 ,6,0,0.,12.0,0.,12.0,0.,12.0,0.,12.0
1979-07-20 12:07:41.270 ,6,0,0.,12.0,0.,12.0,0.,12.0,0.,12.0
1979-07-20 12:07:53.270 ,6,0,0.,12.0,0.,12.0,0.,12.0,0.,12.0
1979-07-20 12:08:05.270 ,5,0,0.,12.0,0.,12.0,0.,12.0,0.,12.0
1979-07-20 12:08:17.270 ,5,0,0.,12.0,0.,12.0,0.,12.0,0.,12.0
1979-07-20 12:08:29.270 ,5,0,0.,12.0,0.,12.0,0.,12.0,0.,12.0
1979-07-20 12:08:41.280 ,5,0,0.,12.0,0.,12.0,0.,12.0,0.,12.0
1979-07-20 12:08:53.280 ,4,0,0.,12.0,0.,12.0,0.,12.0,0.,12.0
1979-07-20 12:09:05.280 ,4,0,0.,12.0,0.,12.0,0.,12.0,0.,12.0
1979-07-20 12:09:17.280 ,4,0,0.,12.0,0.,12.0,0.,12.0,0.,12.0
1979-07-20 12:09:29.280 ,4,0,0.,12.0,0.,12.0,0.,12.0,0.,12.0
1979-07-20 12:09:41.280 ,3,0,0.,12.0,0.,12.0,0.,12.0,0.,12.0
1979-07-20 12:09:53.280 ,3,0,0.,12.0,0.,12.0,0.,12.0,0.,12.0
1979-07-20 12:10:05.280 ,3,0,0.,12.0,0.,12.0,0.,12.0,0.,12.0
1979-07-20 12:10:17.280 ,3,0,0.,12.0,0.,12.0,0.,12.0,0.,12.0
1979-07-20 12:10:29.280 ,2,0,0.,12.0,0.,12.0,0.,12.0,0.,12.0
1979-07-20 12:10:41.280 ,2,0,0.,12.0,0.,12.0,0.,12.0,0.,12.0
1979-07-20 12:10:53.280 ,2,0,0.,12.0,0.,12.0,0.,12.0,0.,12.0
1979-07-20 12:11:05.280 ,2,0,0.,12.0,0.,12.0,0.,12.0,0.,12.0
1979-07-20 12:11:17.280 ,1,0,0.,12.0,0.,12.0,0.,12.0,0.,12.0
1979-07-20 12:11:29.280 ,1,0,0.,12.0,0.,12.0,0.,12.0,0.,12.0
1979-07-20 12:11:41.280 ,1,0,0.,12.0,0.,12.0,0.,12.0,0.,12.0
1979-07-20 12:11:53.280 ,1,0,0.,12.0,0.,12.0,0.,12.0,0.,12.0
1979-07-20 12:12:05.280 ,0,0,0.,12.0,0.,12.0,0.,12.0,0.,12.0
1979-07-20 12:12:17.280 ,0,0,0.,12.0,0.,12.0,0.,12.0,0.,12.0
1979-07-20 12:12:29.280 ,0,0,0.,12.0,0.,12.0,0.,12.0,0.,12.0
1979-07-20 12:12:41.280 ,0,0,0.,12.0,0.,12.0,0.,12.0,0.,12.0
1979-07-20 12:12:53.280 ,0,0,0.,12.0,0.,12.0,0.,12.0,0.,12.0
1979-07-20 12:13:05.280 ,0,0,1.,12.0,0.,12.0,0.,12.0,0.,12.0
1979-07-20 12:13:17.280 ,0,0,0.,12.0,0.,12.0,0.,12.0,0.,12.0
1979-07-20 12:13:29.280 ,0,0,0.,12.0,0.,12.0,0.,12.0,0.,12.0
1979-07-20 12:13:41.280 ,1,0,0.,12.0,0.,12.0,0.,12.0,0.,12.0
1979-07-20 12:13:53.280 ,1,0,0.,12.0,0.,12.0,0.,12.0,0.,12.0
1979-07-20 12:14:05.280 ,1,0,0.,12.0,0.,12.0,0.,12.0,0.,12.0
1979-07-20 12:14:17.280 ,1,0,0.,12.0,0.,12.0,0.,12.0,0.,12.0
1979-07-20 12:14:29.280 ,2,0,0.,12.0,0.,12.0,0.,12.0,0.,12.0
1979-07-20 12:14:41.280 ,2,0,0.,12.0,0.,12.0,0.,12.0,0.,12.0
1979-07-20 12:14:53.280 ,2,0,0.,12.0,0.,12.0,0.,12.0,0.,12.0
1979-07-20 12:15:05.280 ,2,0,0.,12.0,0.,12.0,0.,12.0,0.,12.0
1979-07-20 12:15:17.280 ,3,0,0.,12.0,0.,12.0,0.,12.0,0.,12.0
1979-07-20 12:15:29.280 ,3,0,0.,12.0,0.,12.0,0.,12.0,0.,12.0
1979-07-20 12:15:41.280 ,3,0,0.,12.0,0.,12.0,0.,12.0,0.,12.0
1979-07-20 12:15:53.280 ,3,0,0.,12.0,0.,12.0,0.,12.0,0.,12.0
1979-07-20 12:16:05.280 ,4,0,0.,12.0,0.,12.0,0.,12.0,0.,12.0
1979-07-20 12:16:17.280 ,4,0,0.,12.0,0.,12.0,0.,12.0,0.,12.0
1979-07-20 12:16:29.280 ,4,0,0.,12.0,0.,12.0,0.,12.0,0.,12.0
1979-07-20 12:16:41.280 ,4,0,0.,12.0,0.,12.0,0.,12.0,0.,12.0
1979-07-20 12:16:53.280 ,5,0,0.,12.0,0.,12.0,0.,12.0,0.,12.0
1979-07-20 12:17:05.280 ,5,0,0.,12.0,0.,12.0,0.,12.0,0.,12.0
1979-07-20 12:17:17.280 ,5,0,0.,12.0,0.,12.0,0.,12.0,0.,12.0
1979-07-20 12:17:29.280 ,5,0,0.,12.0,0.,12.0,0.,12.0,0.,12.0
1979-07-20 12:17:41.280 ,6,0,0.,12.0,0.,12.0,0.,12.0,0.,12.0
1979-07-20 12:17:53.280 ,6,0,0.,12.0,0.,12.0,0.,12.0,0.,12.0
1979-07-20 12:18:05.280 ,6,0,0.,12.0,0.,12.0,0.,12.0,0.,12.0
1979-07-20 12:18:17.280 ,6,0,0.,12.0,0.,12.0,0.,12.0,0.,12.0
1979-07-20 12:18:29.280 ,7,0,0.,12.0,0.,12.0,0.,12.0,0.,12.0
1979-07-20 12:18:41.280 ,7,0,0.,12.0,0.,12.0,0.,12.0,0.,12.0
1979-07-20 12:18:53.280 ,7,0,0.,12.0,0.,12.0,0.,12.0,0.,12.0
1979-07-20 12:19:05.280 ,7,0,0.,12.0,0.,12.0,0.,12.0,0.,12.0
1979-07-20 12:19:17.280 ,3,1,0.,12.0,0.,12.0,0.,12.0,0.,12.0
1979-07-20 12:19:29.280 ,3,1,0.,12.0,0.,12.0,0.,12.0,0.,12.0
1979-07-20 12:19:41.280 ,0,1,0.,12.0,0.,12.0,0.,12.0,0.,12.0
1979-07-20 12:19:53.280 ,0,1,0.,12.0,0.,12.0,0.,12.0,0.,12.0
1979-07-20 12:20:05.280 ,4,1,0.,12.0,0.,12.0,0.,12.0,0.,12.0
1979-07-20 12:20:17.280 ,4,1,0.,12.0,0.,12.0,0.,12.0,0.,12.0
1979-07-20 12:20:29.280 ,7,1,0.,12.0,0.,12.0,0.,12.0,0.,12.0
1979-07-20 12:20:41.280 ,7,1,0.,12.0,0.,12.0,0.,12.0,0.,12.0
1979-07-20 12:20:53.270 ,3,1,0.,12.0,0.,12.0,0.,12.0,0.,12.0
1979-07-20 12:21:05.270 ,3,1,0.,12.0,0.,12.0,0.,12.0,0.,12.0
1979-07-20 12:21:17.270 ,0,1,0.,12.0,0.,12.0,0.,12.0,0.,12.0
1979-07-20 12:21:29.270 ,0,1,0.,12.0,0.,12.0,0.,12.0,0.,12.0
1979-07-20 12:21:41.270 ,4,1,0.,12.0,0.,12.0,0.,12.0,0.,12.0
1979-07-20 12:21:53.270 ,4,1,0.,12.0,0.,12.0,0.,12.0,0.,12.0
1979-07-20 12:22:05.270 ,7,1,0.,12.0,0.,12.0,0.,12.0,0.,12.0
1979-07-20 12:22:17.270 ,7,1,0.,12.0,0.,12.0,0.,12.0,0.,12.0
1979-07-20 12:22:29.270 ,3,1,0.,12.0,0.,12.0,0.,12.0,0.,12.0
1979-07-20 12:22:41.270 ,3,1,0.,12.0,0.,12.0,0.,12.0,0.,12.0
1979-07-20 12:22:53.270 ,0,1,0.,12.0,0.,12.0,0.,12.0,0.,12.0
1979-07-20 12:23:05.270 ,0,1,0.,12.0,0.,12.0,0.,12.0,0.,12.0
1979-07-20 12:23:17.270 ,4,1,0.,12.0,0.,12.0,0.,12.0,0.,12.0
1979-07-20 12:23:29.270 ,4,1,0.,12.0,0.,12.0,0.,12.0,0.,12.0
1979-07-20 12:23:41.270 ,7,1,0.,12.0,0.,12.0,0.,12.0,0.,12.0
1979-07-20 12:23:53.270 ,7,1,0.,12.0,0.,12.0,0.,12.0,0.,12.0
1979-07-20 12:24:05.270 ,3,1,0.,12.0,0.,12.0,0.,12.0,0.,12.0
1979-07-20 12:24:17.270 ,3,1,0.,12.0,0.,12.0,0.,12.0,0.,12.0
1979-07-20 12:24:29.270 ,0,1,0.,12.0,0.,12.0,0.,12.0,0.,12.0
1979-07-20 12:24:41.270 ,0,1,0.,12.0,0.,12.0,0.,12.0,0.,12.0
1979-07-20 12:24:53.270 ,4,1,0.,12.0,0.,12.0,0.,12.0,0.,12.0
1979-07-20 12:25:05.270 ,4,1,0.,12.0,0.,12.0,0.,12.0,0.,12.0
1979-07-20 12:25:17.270 ,7,1,0.,12.0,0.,12.0,0.,12.0,0.,12.0
1979-07-20 12:25:29.270 ,7,1,0.,12.0,0.,12.0,0.,12.0,0.,12.0
1979-07-20 12:25:41.270 ,3,1,0.,12.0,0.,12.0,0.,12.0,0.,12.0
1979-07-20 12:25:53.270 ,3,1,0.,12.0,0.,12.0,0.,12.0,0.,12.0
1979-07-20 12:26:05.270 ,0,1,0.,12.0,0.,12.0,0.,12.0,0.,12.0
1979-07-20 12:26:17.270 ,0,1,0.,12.0,0.,12.0,0.,12.0,0.,12.0
1979-07-20 12:26:29.270 ,4,1,0.,12.0,0.,12.0,0.,12.0,0.,12.0
1979-07-20 12:26:41.270 ,4,1,0.,12.0,0.,12.0,0.,12.0,0.,12.0
1979-07-20 12:26:53.270 ,7,1,0.,12.0,0.,12.0,0.,12.0,0.,12.0
1979-07-20 12:27:05.270 ,7,1,0.,12.0,0.,12.0,0.,12.0,0.,12.0
1979-07-20 12:27:17.270 ,3,1,0.,12.0,0.,12.0,0.,12.0,0.,12.0
1979-07-20 12:27:29.270 ,3,1,0.,12.0,0.,12.0,0.,12.0,0.,12.0
1979-07-20 12:27:41.270 ,0,1,0.,12.0,0.,12.0,0.,12.0,0.,12.0
1979-07-20 12:27:53.270 ,0,1,0.,12.0,0.,12.0,0.,12.0,0.,12.0
1979-07-20 12:28:05.270 ,4,1,0.,12.0,0.,12.0,0.,12.0,0.,12.0
1979-07-20 12:28:17.270 ,4,1,0.,12.0,0.,12.0,0.,12.0,0.,12.0
1979-07-20 12:28:29.270 ,7,1,0.,12.0,0.,12.0,0.,12.0,0.,12.0
1979-07-20 12:28:41.270 ,7,1,0.,12.0,0.,12.0,0.,12.0,0.,12.0
1979-07-20 12:28:53.270 ,3,1,0.,12.0,0.,12.0,0.,12.0,0.,12.0
1979-07-20 12:29:05.270 ,3,1,0.,12.0,0.,12.0,0.,12.0,0.,12.0
1979-07-20 12:29:17.270 ,0,1,0.,12.0,0.,12.0,0.,12.0,0.,12.0
1979-07-20 12:29:29.270 ,0,1,0.,12.0,0.,12.0,0.,12.0,0.,12.0
1979-07-20 12:29:41.270 ,0,0,0.,12.0,0.,12.0,0.,12.0,0.,12.0
1979-07-20 12:29:53.270 ,0,0,0.,12.0,0.,12.0,0.,12.0,0.,12.0
1979-07-20 12:30:05.270 ,0,0,0.,12.0,0.,12.0,0.,12.0,0.,12.0
1979-07-20 12:30:17.270 ,0,0,0.,12.0,0.,12.0,0.,12.0,0.,12.0
1979-07-20 12:30:29.270 ,5,0,0.,12.0,0.,12.0,0.,12.0,0.,12.0
1979-07-20 12:30:41.270 ,5,0,0.,12.0,0.,12.0,0.,12.0,0.,12.0
1979-07-20 12:30:53.270 ,5,0,0.,12.0,0.,12.0,0.,12.0,0.,12.0
1979-07-20 12:31:05.270 ,5,0,0.,12.0,0.,12.0,0.,12.0,0.,12.0
1979-07-20 12:31:17.270 ,4,0,0.,12.0,0.,12.0,0.,12.0,0.,12.0
1979-07-20 12:31:29.270 ,4,0,0.,12.0,0.,12.0,0.,12.0,0.,12.0
1979-07-20 12:31:41.270 ,4,0,0.,12.0,1.,12.0,0.,12.0,0.,12.0
1979-07-20 12:31:53.270 ,4,0,0.,12.0,0.,12.0,0.,12.0,0.,12.0
1979-07-20 12:32:05.270 ,3,0,0.,12.0,0.,12.0,0.,12.0,0.,12.0
1979-07-20 12:32:17.270 ,3,0,0.,12.0,0.,12.0,0.,12.0,0.,12.0
1979-07-20 12:32:29.270 ,3,0,0.,12.0,0.,12.0,0.,12.0,0.,12.0
1979-07-20 12:32:41.270 ,3,0,0.,12.0,0.,12.0,0.,12.0,0.,12.0
1979-07-20 12:32:53.270 ,2,0,0.,12.0,0.,12.0,0.,12.0,0.,12.0
1979-07-20 12:33:05.270 ,2,0,0.,12.0,0.,12.0,0.,12.0,0.,12.0
1979-07-20 12:33:17.270 ,2,0,0.,12.0,0.,12.0,0.,12.0,0.,12.0
1979-07-20 12:33:29.270 ,2,0,0.,12.0,0.,12.0,0.,12.0,0.,12.0
1979-07-20 12:33:41.270 ,1,0,0.,12.0,0.,12.0,0.,12.0,0.,12.0
1979-07-20 12:33:53.270 ,1,0,0.,12.0,0.,12.0,0.,12.0,0.,12.0
1979-07-20 12:34:05.270 ,1,0,0.,12.0,0.,12.0,0.,12.0,0.,12.0
1979-07-20 12:34:17.270 ,1,0,0.,12.0,0.,12.0,0.,12.0,0.,12.0
1979-07-20 12:34:29.270 ,0,0,0.,12.0,0.,12.0,0.,12.0,0.,12.0
1979-07-20 12:34:41.270 ,0,0,1.,12.0,0.,12.0,0.,12.0,0.,12.0
1979-07-20 12:34:53.270 ,0,0,0.,12.0,0.,12.0,0.,12.0,0.,12.0
1979-07-20 12:35:05.270 ,0,0,0.,12.0,0.,12.0,0.,12.0,0.,12.0
1979-07-20 12:35:17.270 ,0,0,0.,12.0,0.,12.0,0.,12.0,0.,12.0
1979-07-20 12:35:29.270 ,0,0,0.,12.0,0.,12.0,0.,12.0,0.,12.0
1979-07-20 12:35:41.270 ,0,0,0.,12.0,0.,12.0,0.,12.0,0.,12.0
1979-07-20 12:35:53.270 ,0,0,0.,12.0,0.,12.0,0.,12.0,0.,12.0
1979-07-20 12:36:05.270 ,1,0,0.,12.0,0.,12.0,0.,12.0,0.,12.0
1979-07-20 12:36:17.270 ,1,0,0.,12.0,0.,12.0,0.,12.0,0.,12.0
1979-07-20 12:36:29.270 ,1,0,0.,12.0,0.,12.0,0.,12.0,0.,12.0
1979-07-20 12:36:41.270 ,1,0,0.,12.0,0.,12.0,0.,12.0,0.,12.0
1979-07-20 12:36:53.270 ,2,0,0.,12.0,0.,12.0,0.,12.0,0.,12.0
1979-07-20 12:37:05.270 ,2,0,0.,12.0,0.,12.0,0.,12.0,0.,12.0
1979-07-20 12:37:17.270 ,2,0,0.,12.0,0.,12.0,0.,12.0,0.,12.0
1979-07-20 12:37:29.270 ,2,0,0.,12.0,0.,12.0,0.,12.0,0.,12.0
1979-07-20 12:37:41.270 ,3,0,0.,12.0,0.,12.0,0.,12.0,0.,12.0
1979-07-20 12:37:53.270 ,3,0,0.,12.0,0.,12.0,0.,12.0,0.,12.0
1979-07-20 12:38:05.270 ,3,0,0.,12.0,0.,12.0,0.,12.0,0.,12.0
1979-07-20 12:38:17.270 ,3,0,0.,12.0,0.,12.0,0.,12.0,0.,12.0
1979-07-20 12:38:29.270 ,4,0,0.,12.0,0.,12.0,0.,12.0,0.,12.0
1979-07-20 12:38:41.270 ,4,0,0.,12.0,0.,12.0,0.,12.0,0.,12.0
1979-07-20 12:38:53.270 ,4,0,0.,12.0,0.,12.0,0.,12.0,0.,12.0
1979-07-20 12:39:05.270 ,4,0,0.,12.0,0.,12.0,0.,12.0,0.,12.0
1979-07-20 12:39:17.270 ,5,0,0.,12.0,0.,12.0,0.,12.0,0.,12.0
1979-07-20 12:39:29.270 ,5,0,0.,12.0,0.,12.0,0.,12.0,0.,12.0
1979-07-20 12:39:41.270 ,5,0,0.,12.0,0.,12.0,0.,12.0,0.,12.0
1979-07-20 12:39:53.270 ,5,0,0.,12.0,0.,12.0,0.,12.0,0.,12.0
1979-07-20 12:40:05.270 ,6,0,0.,12.0,0.,12.0,0.,12.0,0.,12.0
1979-07-20 12:40:17.270 ,6,0,0.,12.0,0.,12.0,0.,12.0,0.,12.0
1979-07-20 12:40:29.270 ,6,0,0.,12.0,0.,12.0,0.,12.0,0.,12.0
1979-07-20 12:40:41.270 ,6,0,0.,12.0,0.,12.0,0.,12.0,0.,12.0
1979-07-20 12:40:53.270 ,7,0,0.,12.0,0.,12.0,0.,12.0,0.,12.0
1979-07-20 12:41:05.270 ,7,0,0.,12.0,0.,12.0,0.,12.0,0.,12.0
1979-07-20 12:41:17.270 ,7,0,0.,12.0,0.,12.0,0.,12.0,0.,12.0
1979-07-20 12:41:29.270 ,7,0,0.,12.0,0.,12.0,0.,12.0,0.,12.0
1979-07-20 12:41:41.270 ,7,0,0.,12.0,0.,12.0,0.,12.0,0.,12.0
1979-07-20 12:41:53.270 ,7,0,0.,12.0,0.,12.0,0.,12.0,0.,12.0
1979-07-20 12:42:05.270 ,7,0,0.,12.0,0.,12.0,0.,12.0,0.,12.0
1979-07-20 12:42:17.270 ,7,0,0.,12.0,0.,12.0,0.,12.0,0.,12.0
1979-07-20 12:42:29.270 ,6,0,0.,12.0,0.,12.0,0.,12.0,0.,12.0
1979-07-20 12:42:41.270 ,6,0,0.,12.0,0.,12.0,0.,12.0,0.,12.0
1979-07-20 12:42:53.270 ,6,0,0.,12.0,0.,12.0,0.,12.0,0.,12.0
1979-07-20 12:43:05.270 ,6,0,0.,12.0,0.,12.0,0.,12.0,0.,12.0
1979-07-20 12:43:17.270 ,5,0,0.,12.0,0.,12.0,0.,12.0,0.,12.0
1979-07-20 12:43:29.270 ,5,0,0.,12.0,0.,12.0,0.,12.0,0.,12.0
1979-07-20 12:43:41.270 ,5,0,0.,12.0,0.,12.0,0.,12.0,0.,12.0
1979-07-20 12:43:53.270 ,5,0,0.,12.0,0.,12.0,0.,12.0,0.,12.0
1979-07-20 12:44:05.270 ,4,0,0.,12.0,0.,12.0,0.,12.0,0.,12.0
1979-07-20 12:44:17.270 ,4,0,0.,12.0,0.,12.0,0.,12.0,0.,12.0
1979-07-20 12:44:29.270 ,4,0,0.,12.0,0.,12.0,0.,12.0,0.,12.0
1979-07-20 12:44:41.270 ,4,0,0.,12.0,0.,12.0,0.,12.0,0.,12.0
1979-07-20 12:44:53.270 ,3,0,0.,12.0,0.,12.0,0.,12.0,0.,12.0
1979-07-20 12:45:05.270 ,3,0,0.,12.0,0.,12.0,0.,12.0,0.,12.0
1979-07-20 12:45:17.270 ,3,0,0.,12.0,0.,12.0,0.,12.0,0.,12.0
1979-07-20 12:45:29.270 ,3,0,0.,12.0,0.,12.0,0.,12.0,0.,12.0
1979-07-20 12:45:41.270 ,2,0,0.,12.0,0.,12.0,0.,12.0,0.,12.0
1979-07-20 12:45:53.270 ,2,0,0.,12.0,0.,12.0,0.,12.0,0.,12.0
1979-07-20 12:46:05.270 ,2,0,0.,12.0,0.,12.0,0.,12.0,0.,12.0
1979-07-20 12:46:17.270 ,2,0,0.,12.0,0.,12.0,0.,12.0,0.,12.0
1979-07-20 12:46:29.270 ,1,0,0.,12.0,0.,12.0,0.,12.0,0.,12.0
1979-07-20 12:46:41.270 ,1,0,0.,12.0,0.,12.0,0.,12.0,0.,12.0
1979-07-20 12:46:53.270 ,1,0,0.,12.0,0.,12.0,0.,12.0,0.,12.0
1979-07-20 12:47:05.270 ,1,0,0.,12.0,0.,12.0,0.,12.0,0.,12.0
1979-07-20 12:47:17.270 ,0,0,0.,12.0,0.,12.0,0.,12.0,0.,12.0
1979-07-20 12:47:29.270 ,0,0,0.,12.0,0.,12.0,0.,12.0,0.,12.0
1979-07-20 12:47:41.270 ,0,0,0.,12.0,0.,12.0,0.,12.0,0.,12.0
1979-07-20 12:47:53.270 ,0,0,0.,12.0,0.,12.0,0.,12.0,0.,12.0
1979-07-20 12:48:05.270 ,0,0,0.,12.0,0.,12.0,0.,12.0,0.,12.0
1979-07-20 12:48:17.270 ,0,0,0.,12.0,0.,12.0,0.,12.0,0.,12.0
1979-07-20 12:48:29.270 ,0,0,0.,12.0,0.,12.0,0.,12.0,0.,12.0
1979-07-20 12:48:41.270 ,0,0,0.,12.0,0.,12.0,0.,12.0,0.,12.0
1979-07-20 12:48:53.270 ,1,0,0.,12.0,0.,12.0,0.,12.0,0.,12.0
1979-07-20 12:49:05.270 ,1,0,0.,12.0,0.,12.0,0.,12.0,0.,12.0
1979-07-20 12:49:17.270 ,1,0,0.,12.0,0.,12.0,0.,12.0,0.,12.0
1979-07-20 12:49:29.270 ,1,0,0.,12.0,0.,12.0,0.,12.0,0.,12.0
1979-07-20 12:49:41.270 ,2,0,0.,12.0,0.,12.0,0.,12.0,0.,12.0
1979-07-20 12:49:53.270 ,2,0,0.,12.0,0.,12.0,0.,12.0,0.,12.0
1979-07-20 12:50:05.270 ,2,0,0.,12.0,0.,12.0,0.,12.0,0.,12.0
1979-07-20 12:50:17.270 ,2,0,0.,12.0,0.,12.0,0.,12.0,0.,12.0
1979-07-20 12:50:29.270 ,3,0,0.,12.0,0.,12.0,0.,12.0,0.,12.0
1979-07-20 12:50:41.270 ,3,0,0.,12.0,0.,12.0,0.,12.0,0.,12.0
1979-07-20 12:50:53.270 ,3,0,0.,12.0,0.,12.0,0.,12.0,0.,12.0
1979-07-20 12:51:05.270 ,3,0,0.,12.0,0.,12.0,0.,12.0,0.,12.0
1979-07-20 12:51:17.270 ,4,0,1.,12.0,0.,12.0,0.,12.0,0.,12.0
1979-07-20 12:51:29.270 ,4,0,0.,12.0,0.,12.0,0.,12.0,0.,12.0
1979-07-20 12:51:41.270 ,4,0,0.,12.0,0.,12.0,0.,12.0,0.,12.0
1979-07-20 12:51:53.270 ,4,0,0.,12.0,0.,12.0,0.,12.0,0.,12.0
1979-07-20 12:52:05.270 ,5,0,0.,12.0,0.,12.0,0.,12.0,0.,12.0
1979-07-20 12:52:17.270 ,5,0,0.,12.0,0.,12.0,0.,12.0,0.,12.0
1979-07-20 12:52:29.270 ,5,0,0.,12.0,0.,12.0,0.,12.0,0.,12.0
1979-07-20 12:52:41.270 ,5,0,0.,12.0,0.,12.0,0.,12.0,0.,12.0
1979-07-20 12:52:53.270 ,6,0,0.,12.0,0.,12.0,0.,12.0,0.,12.0
1979-07-20 12:53:05.270 ,6,0,0.,12.0,0.,12.0,0.,12.0,0.,12.0
1979-07-20 12:53:17.270 ,6,0,0.,12.0,0.,12.0,0.,12.0,0.,12.0
1979-07-20 12:53:29.270 ,6,0,0.,12.0,0.,12.0,0.,12.0,0.,12.0
1979-07-20 12:53:41.270 ,7,0,0.,12.0,0.,12.0,0.,12.0,0.,12.0
1979-07-20 12:53:53.270 ,7,0,0.,12.0,0.,12.0,0.,12.0,0.,12.0
1979-07-20 12:54:05.270 ,7,0,0.,12.0,0.,12.0,0.,12.0,0.,12.0
1979-07-20 12:54:17.270 ,7,0,0.,12.0,0.,12.0,0.,12.0,0.,12.0
1979-07-20 12:54:29.270 ,7,0,0.,12.0,0.,12.0,0.,12.0,0.,12.0
1979-07-20 12:54:41.270 ,7,0,0.,12.0,0.,12.0,0.,12.0,0.,12.0
1979-07-20 12:54:53.270 ,7,0,0.,12.0,0.,12.0,0.,12.0,0.,12.0
1979-07-20 12:55:05.270 ,7,0,0.,12.0,0.,12.0,0.,12.0,0.,12.0
1979-07-20 12:55:17.270 ,6,0,0.,12.0,0.,12.0,0.,12.0,0.,12.0
1979-07-20 12:55:29.270 ,6,0,0.,12.0,0.,12.0,0.,12.0,0.,12.0
1979-07-20 12:55:41.270 ,6,0,0.,12.0,0.,12.0,0.,12.0,0.,12.0
1979-07-20 12:55:53.270 ,6,0,0.,12.0,0.,12.0,0.,12.0,0.,12.0
1979-07-20 12:56:05.270 ,5,0,0.,12.0,0.,12.0,0.,12.0,0.,12.0
1979-07-20 12:56:17.270 ,5,0,0.,12.0,0.,12.0,0.,12.0,0.,12.0
1979-07-20 12:56:29.270 ,5,0,0.,12.0,0.,12.0,0.,12.0,0.,12.0
1979-07-20 12:56:41.270 ,5,0,0.,12.0,0.,12.0,0.,12.0,0.,12.0
1979-07-20 12:56:53.270 ,4,0,0.,12.0,0.,12.0,0.,12.0,0.,12.0
1979-07-20 12:57:05.270 ,4,0,0.,12.0,0.,12.0,0.,12.0,0.,12.0
1979-07-20 12:57:17.270 ,4,0,0.,12.0,0.,12.0,0.,12.0,0.,12.0
1979-07-20 12:57:29.270 ,4,0,0.,12.0,0.,12.0,0.,12.0,0.,12.0
1979-07-20 12:57:41.270 ,3,0,0.,12.0,0.,12.0,0.,12.0,0.,12.0
1979-07-20 12:57:53.270 ,3,0,0.,12.0,0.,12.0,0.,12.0,0.,12.0
1979-07-20 12:58:05.270 ,3,0,0.,12.0,0.,12.0,0.,12.0,0.,12.0
1979-07-20 12:58:17.270 ,3,0,0.,12.0,0.,12.0,0.,12.0,0.,12.0
1979-07-20 12:58:29.270 ,2,0,0.,12.0,0.,12.0,0.,12.0,0.,12.0
1979-07-20 12:58:41.270 ,2,0,0.,12.0,0.,12.0,0.,12.0,0.,12.0
1979-07-20 12:58:53.270 ,2,0,0.,12.0,0.,12.0,0.,12.0,0.,12.0
1979-07-20 12:59:05.270 ,2,0,0.,12.0,0.,12.0,0.,12.0,0.,12.0
1979-07-20 12:59:17.270 ,1,0,0.,12.0,0.,12.0,0.,12.0,0.,12.0
1979-07-20 12:59:29.270 ,1,0,0.,12.0,0.,12.0,0.,12.0,0.,12.0
1979-07-20 12:59:41.270 ,1,0,0.,12.0,0.,12.0,0.,12.0,0.,12.0
1979-07-20 12:59:53.270 ,1,0,0.,12.0,0.,12.0,0.,12.0,0.,12.0
1979-07-20 13:00:05.270 ,0,0,0.,12.0,0.,12.0,0.,12.0,0.,12.0
1979-07-20 13:00:17.270 ,0,0,0.,12.0,0.,12.0,0.,12.0,0.,12.0
1979-07-20 13:00:29.270 ,0,0,0.,12.0,0.,12.0,0.,12.0,0.,12.0
1979-07-20 13:00:41.270 ,0,0,0.,12.0,0.,12.0,0.,12.0,0.,12.0
1979-07-20 13:00:53.270 ,0,0,0.,12.0,0.,12.0,0.,12.0,0.,12.0
1979-07-20 13:01:05.270 ,0,0,0.,12.0,0.,12.0,0.,12.0,0.,12.0
1979-07-20 13:01:17.270 ,0,0,0.,12.0,0.,12.0,0.,12.0,0.,12.0
1979-07-20 13:01:29.270 ,0,0,0.,12.0,0.,12.0,0.,12.0,0.,12.0
1979-07-20 13:01:41.270 ,1,0,0.,12.0,0.,12.0,0.,12.0,0.,12.0
1979-07-20 13:01:53.270 ,1,0,0.,12.0,0.,12.0,0.,12.0,0.,12.0
1979-07-20 13:02:05.270 ,1,0,0.,12.0,0.,12.0,0.,12.0,0.,12.0
1979-07-20 13:02:17.270 ,1,0,0.,12.0,0.,12.0,0.,12.0,0.,12.0
1979-07-20 13:02:29.270 ,2,0,0.,12.0,0.,12.0,0.,12.0,0.,12.0
1979-07-20 13:02:41.270 ,2,0,0.,12.0,0.,12.0,0.,12.0,0.,12.0
1979-07-20 13:02:53.270 ,2,0,0.,12.0,0.,12.0,0.,12.0,0.,12.0
1979-07-20 13:03:05.270 ,2,0,0.,12.0,0.,12.0,0.,12.0,0.,12.0
1979-07-20 13:03:17.270 ,3,0,0.,12.0,0.,12.0,0.,12.0,0.,12.0
1979-07-20 13:03:29.270 ,3,0,0.,12.0,0.,12.0,0.,12.0,0.,12.0
1979-07-20 13:03:41.270 ,3,0,0.,12.0,0.,12.0,0.,12.0,0.,12.0
1979-07-20 13:03:53.270 ,3,0,0.,12.0,0.,12.0,0.,12.0,0.,12.0
1979-07-20 13:04:05.270 ,4,0,0.,12.0,0.,12.0,0.,12.0,0.,12.0
1979-07-20 13:04:17.270 ,4,0,0.,12.0,0.,12.0,0.,12.0,0.,12.0
1979-07-20 13:04:29.270 ,4,0,0.,12.0,0.,12.0,0.,12.0,0.,12.0
1979-07-20 13:04:41.270 ,4,0,0.,12.0,0.,12.0,0.,12.0,0.,12.0
1979-07-20 13:04:53.270 ,5,0,0.,12.0,0.,12.0,0.,12.0,0.,12.0
1979-07-20 13:05:05.270 ,5,0,0.,12.0,0.,12.0,0.,12.0,0.,12.0
1979-07-20 13:05:17.270 ,5,0,0.,12.0,0.,12.0,0.,12.0,0.,12.0
1979-07-20 13:05:29.270 ,5,0,0.,12.0,0.,12.0,0.,12.0,0.,12.0
1979-07-20 13:05:41.270 ,6,0,0.,12.0,0.,12.0,0.,12.0,0.,12.0
1979-07-20 13:05:53.270 ,6,0,0.,12.0,0.,12.0,0.,12.0,0.,12.0
1979-07-20 13:06:05.270 ,6,0,0.,12.0,0.,12.0,0.,12.0,0.,12.0
1979-07-20 13:06:17.270 ,6,0,0.,12.0,0.,12.0,0.,12.0,0.,12.0
1979-07-20 13:06:29.270 ,7,0,0.,12.0,0.,12.0,0.,12.0,0.,12.0
1979-07-20 13:06:41.270 ,7,0,0.,12.0,0.,12.0,0.,12.0,0.,12.0
1979-07-20 13:06:53.270 ,7,0,0.,12.0,0.,12.0,0.,12.0,0.,12.0
1979-07-20 13:07:05.270 ,7,0,0.,12.0,0.,12.0,0.,12.0,0.,12.0
1979-07-20 13:07:17.270 ,3,1,0.,12.0,0.,12.0,0.,12.0,0.,12.0
1979-07-20 13:07:29.270 ,3,1,0.,12.0,0.,12.0,0.,12.0,0.,12.0
1979-07-20 13:07:41.270 ,0,1,0.,12.0,0.,12.0,0.,12.0,0.,12.0
1979-07-20 13:07:53.270 ,0,1,0.,12.0,0.,12.0,0.,12.0,0.,12.0
1979-07-20 13:08:05.270 ,4,1,0.,12.0,0.,12.0,0.,12.0,0.,12.0
1979-07-20 13:08:17.270 ,4,1,0.,12.0,0.,12.0,0.,12.0,0.,12.0
1979-07-20 13:08:29.270 ,7,1,0.,12.0,0.,12.0,0.,12.0,0.,12.0
1979-07-20 13:08:41.270 ,7,1,0.,12.0,0.,12.0,0.,12.0,0.,12.0
1979-07-20 13:08:53.270 ,3,1,0.,12.0,0.,12.0,0.,12.0,0.,12.0
1979-07-20 13:09:05.270 ,3,1,0.,12.0,0.,12.0,0.,12.0,0.,12.0
1979-07-20 13:09:17.270 ,0,1,0.,12.0,0.,12.0,0.,12.0,0.,12.0
1979-07-20 13:09:29.270 ,0,1,0.,12.0,0.,12.0,0.,12.0,0.,12.0
1979-07-20 13:09:41.270 ,4,1,0.,12.0,0.,12.0,0.,12.0,0.,12.0
1979-07-20 13:09:53.270 ,4,1,0.,12.0,0.,12.0,0.,12.0,0.,12.0
1979-07-20 13:10:05.270 ,7,1,0.,12.0,0.,12.0,0.,12.0,0.,12.0
1979-07-20 13:10:17.270 ,7,1,0.,12.0,0.,12.0,0.,12.0,0.,12.0
1979-07-20 13:10:29.270 ,3,1,0.,12.0,0.,12.0,0.,12.0,0.,12.0
1979-07-20 13:10:41.270 ,3,1,0.,12.0,0.,12.0,0.,12.0,0.,12.0
1979-07-20 13:10:53.270 ,0,1,0.,12.0,0.,12.0,0.,12.0,0.,12.0
1979-07-20 13:11:05.270 ,0,1,0.,12.0,0.,12.0,0.,12.0,0.,12.0
1979-07-20 13:11:17.270 ,4,1,0.,12.0,0.,12.0,0.,12.0,0.,12.0
1979-07-20 13:11:29.270 ,4,1,0.,12.0,0.,12.0,0.,12.0,0.,12.0
1979-07-20 13:11:41.270 ,7,1,0.,12.0,0.,12.0,0.,12.0,0.,12.0
1979-07-20 13:11:53.270 ,7,1,0.,12.0,0.,12.0,0.,12.0,0.,12.0
1979-07-20 13:12:05.270 ,3,1,0.,12.0,0.,12.0,0.,12.0,0.,12.0
1979-07-20 13:12:17.270 ,3,1,0.,12.0,0.,12.0,0.,12.0,0.,12.0
1979-07-20 13:12:29.270 ,0,1,0.,12.0,0.,12.0,0.,12.0,0.,12.0
1979-07-20 13:12:41.270 ,0,1,0.,12.0,0.,12.0,0.,12.0,0.,12.0
1979-07-20 13:12:53.270 ,4,1,0.,12.0,0.,12.0,0.,12.0,0.,12.0
1979-07-20 13:13:05.270 ,4,1,0.,12.0,0.,12.0,0.,12.0,0.,12.0
1979-07-20 13:13:17.270 ,7,1,0.,12.0,0.,12.0,0.,12.0,0.,12.0
1979-07-20 13:13:29.270 ,7,1,0.,12.0,0.,12.0,0.,12.0,0.,12.0
1979-07-20 13:13:41.270 ,3,1,0.,12.0,0.,12.0,0.,12.0,0.,12.0
1979-07-20 13:13:53.270 ,3,1,0.,12.0,0.,12.0,0.,12.0,0.,12.0
1979-07-20 13:14:05.270 ,0,1,0.,12.0,0.,12.0,0.,12.0,0.,12.0
1979-07-20 13:14:17.270 ,0,1,0.,12.0,0.,12.0,0.,12.0,0.,12.0
1979-07-20 13:14:29.270 ,4,1,0.,12.0,0.,12.0,0.,12.0,0.,12.0
1979-07-20 13:14:41.270 ,4,1,0.,12.0,0.,12.0,0.,12.0,0.,12.0
1979-07-20 13:14:53.270 ,7,1,0.,12.0,0.,12.0,0.,12.0,0.,12.0
1979-07-20 13:15:05.270 ,7,1,0.,12.0,0.,12.0,0.,12.0,0.,12.0
1979-07-20 13:15:17.270 ,3,1,0.,12.0,0.,12.0,0.,12.0,0.,12.0
1979-07-20 13:15:29.270 ,3,1,0.,12.0,0.,12.0,0.,12.0,0.,12.0
1979-07-20 13:15:41.270 ,0,1,0.,12.0,0.,12.0,0.,12.0,0.,12.0
1979-07-20 13:15:53.270 ,0,1,0.,12.0,0.,12.0,0.,12.0,0.,12.0
1979-07-20 13:16:05.270 ,4,1,0.,12.0,0.,12.0,0.,12.0,0.,12.0
1979-07-20 13:16:17.270 ,4,1,0.,12.0,0.,12.0,0.,12.0,0.,12.0
1979-07-20 13:16:29.270 ,7,1,0.,12.0,0.,12.0,0.,12.0,0.,12.0
1979-07-20 13:16:41.270 ,7,1,0.,12.0,0.,12.0,0.,12.0,0.,12.0
1979-07-20 13:16:53.270 ,3,1,0.,12.0,0.,12.0,0.,12.0,0.,12.0
1979-07-20 13:17:05.270 ,3,1,0.,12.0,0.,12.0,0.,12.0,0.,12.0